GW0053 Weather Reports


Display with metric or nautical units.
time (UTC)temp
F
wind
direction
speed
MPH
gust
MPH
rain 1hr
in
rain 24hr
in
rain mn
in
humidity
%
barometer
mb
20260506073038 50 0 0.0 2.0 0.00 0.00 0.00 90 1008.4
20260506071542 50 0 0.0 4.0 0.00 0.00 0.00 91 1008.1
20260506061548 50 139 1.0 9.0 0.00 0.00 0.00 89 1007.5
20260506044545 52 98 3.0 10.0 0.00 0.00 0.00 87 1007.1
20260506043040 52 109 4.0 10.0 0.00 0.00 0.00 86 1007.1
20260506041538 52 101 5.0 9.0 0.00 0.00 0.00 86 1007.3
20260506040039 52 95 4.0 7.0 0.00 0.00 0.00 86 1007.5
20260506034541 52 113 1.0 6.0 0.00 0.00 0.00 87 1007.6
20260506033044 52 0 1.0 4.0 0.00 0.00 0.00 87 1007.7
20260506031545 52 0 1.0 5.0 0.00 0.00 0.00 87 1007.7
20260506030035 52 188 2.0 4.0 0.00 0.00 0.00 86 1008.0
20260506024543 52 148 1.0 6.0 0.00 0.00 0.00 88 1007.4
20260506023041 52 103 3.0 11.0 0.00 0.00 0.00 88 1006.7
20260506021556 53 130 5.0 10.0 0.00 0.00 0.00 87 1006.5
20260506020036 55 96 5.0 9.0 0.00 0.00 0.00 82 1006.3
20260506014536 55 105 3.0 8.0 0.00 0.00 0.00 83 1006.6
20260506013035 55 101 2.0 6.0 0.00 0.00 0.00 83 1006.6
20260506011545 56 0 1.0 4.0 0.00 0.00 0.00 77 1007.3
20260506010037 57 183 1.0 4.0 0.00 0.00 0.00 75 1007.4
20260506004536 57 142 1.0 4.0 0.00 0.00 0.00 74 1007.1
20260506003036 58 195 1.0 5.0 0.00 0.00 0.00 72 1006.8
20260506001544 59 197 4.0 8.0 0.00 0.00 0.00 70 1006.7
20260506000042 60 206 5.0 14.0 0.00 0.00 0.00 70 1006.5
20260505234536 60 213 7.0 19.0 0.00 0.00 0.00 68 1006.3
20260505233037 62 259 12.0 23.0 0.00 0.00 0.00 65 1006.3
20260505231542 62 202 10.0 18.0 0.00 0.00 0.00 64 1004.3
20260505230040 63 223 9.0 20.0 0.00 0.00 0.00 63 1004.2
20260505224536 63 205 12.0 22.0 0.00 0.00 0.00 61 1003.8
20260505223037 64 182 9.0 21.0 0.00 0.00 0.00 61 1003.6
20260505221538 64 195 10.0 19.0 0.00 0.00 0.00 61 1003.3
20260505220038 64 171 10.0 24.0 0.00 0.00 0.00 61 1003.3
20260505214602 66 182 8.0 22.0 0.00 0.00 0.00 60 1003.4
20260505213039 67 190 12.0 25.0 0.00 0.00 0.00 59 1003.5
20260505211558 68 177 10.0 23.0 0.00 0.00 0.00 58 1003.5
20260505210045 68 180 11.0 26.0 0.00 0.00 0.00 58 1003.3
20260505204536 69 186 11.0 20.0 0.00 0.00 0.00 56 1003.2
20260505203039 70 168 8.0 26.0 0.00 0.00 0.00 55 1003.2
20260505201538 70 216 6.0 25.0 0.00 0.00 0.00 55 1003.4
20260505200044 72 182 7.0 18.0 0.00 0.00 0.00 52 1003.4
20260505194536 71 217 10.0 26.0 0.00 0.00 0.00 53 1003.6
20260505193038 73 184 11.0 24.0 0.00 0.00 0.00 51 1003.3
20260505191546 73 202 11.0 23.0 0.00 0.00 0.00 52 1003.4
20260505190040 73 196 14.0 24.0 0.00 0.00 0.00 50 1003.5
20260505184536 73 189 10.0 23.0 0.00 0.00 0.00 51 1003.3
20260505183050 74 172 10.0 20.0 0.00 0.00 0.00 51 1003.6
20260505181535 73 178 10.0 18.0 0.00 0.00 0.00 50 1004.0
20260505180048 73 211 10.0 24.0 0.00 0.00 0.00 51 1004.2
20260505174545 74 189 9.0 20.0 0.00 0.00 0.00 49 1004.5
20260505173037 75 208 7.0 15.0 0.00 0.00 0.00 49 1004.6
20260505171536 75 182 9.0 19.0 0.00 0.00 0.00 49 1004.7
20260505170036 74 192 9.0 23.0 0.00 0.00 0.00 50 1004.7
20260505164536 73 172 9.0 21.0 0.00 0.01 0.00 51 1005.1
20260505163037 72 207 12.0 24.0 0.00 0.01 0.00 49 1005.2
20260505161537 71 209 14.0 31.0 0.00 0.01 0.00 50 1005.5
20260505153036 72 227 11.0 26.0 0.00 0.01 0.00 50 1006.1
20260505151541 72 228 9.0 23.0 0.00 0.01 0.00 51 1006.1
20260505124541 61 199 8.0 15.0 0.00 0.01 0.00 64 1006.9
20260505123042 59 205 6.0 15.0 0.00 0.01 0.00 66 1006.9
20260505121539 57 209 8.0 16.0 0.00 0.01 0.00 69 1007.0
20260505120049 55 193 6.0 11.0 0.00 0.01 0.00 73 1007.1
20260505114544 54 205 3.0 9.0 0.00 0.01 0.00 72 1007.0
20260505113041 53 178 2.0 7.0 0.00 0.01 0.00 74 1007.0
20260505111537 51 164 2.0 6.0 0.00 0.01 0.00 77 1006.9
20260505101550 48 175 2.0 6.0 0.00 0.01 0.00 81 1007.0
20260505100039 47 188 1.0 5.0 0.00 0.01 0.00 83 1006.8
20260505094541 46 182 1.0 5.0 0.00 0.01 0.00 84 1006.7
20260505093037 46 160 2.0 5.0 0.00 0.01 0.00 85 1006.7
20260505091555 45 181 1.0 4.0 0.00 0.01 0.00 86 1006.8
20260505090042 45 184 2.0 5.0 0.00 0.01 0.00 86 1006.9
20260505084538 44 189 1.0 5.0 0.00 0.01 0.00 87 1006.9
20260505083037 45 175 1.0 5.0 0.00 0.01 0.00 86 1006.9
20260505081537 44 181 0.0 4.0 0.00 0.01 0.00 87 1006.9